Lid_Strength_Index
1 1 0 0 0 -0 -0 -1 -1 -1 -1 -1 -1 -1 -1 -0 -0 1 4 2 1 -2 1 3 3 3 3 4 4 4 8 9 9 8 7 6 7 6 5 6 6 6 6 6 5
1 1 0 0 0 0 -0 -1 -1 -1 -1 -1 -1 -1 -1 -0 2 3 1 -1 -2 -2 3 4 5 4 5 5 4 6 8 8 7 7 7 6 6 6 7 7 7 6 6 5 5
0 1 1 1 1 0 0 -0 -1 -1 -1 -1 -1 -1 -1 0 3 4 -0 -1 -2 1 3 3 4 5 6 5 5 6 8 8 8 7 6 6 7 6 7 8 7 7 6 6 6
0 0 1 1 1 0 0 -0 -0 -1 -1 -1 -1 -1 -0 2 8 4 -1 -2 -2 2 3 4 5 6 6 7 6 8 7 7 7 6 7 7 6 7 7 7 7 7 7 7 7
0 0 1 1 0 0 0 0 -0 -0 -1 -1 -1 -0 1 4 4 1 -1 -1 2 3 4 5 6 6 7 7 7 7 7 7 6 6 6 7 7 7 8 7 7 8 8 8 8
0 0 0 0 0 0 0 0 -0 -0 -1 -1 -1 0 3 6 1 0 2 3 3 4 4 5 5 5 7 7 7 7 7 7 7 7 7 8 7 8 8 7 8 8 9 9 9
0 0 1 1 0 0 0 0 0 -0 -0 -0 -0 2 4 4 1 1 3 3 3 4 5 4 4 6 6 7 7 7 8 7 7 7 8 8 9 9 8 8 9 9 9 9 9
1 1 1 1 0 0 0 0 0 1 -0 0 0 2 5 3 1 2 2 4 3 4 4 4 4 5 6 6 7 8 8 9 7 8 8 8 9 8 8 9 9 9 9 10 10
0 1 1 1 1 1 1 1 0 0 0 0 1 3 5 3 4 2 2 4 4 4 4 4 4 6 7 9 9 9 11 9 9 8 9 9 9 9 9 9 9 9 10 10 10
1 1 0 0 0 0 1 0 -0 0 1 1 2 5 4 6 5 3 3 3 5 5 6 6 7 8 9 9 12 10 10 10 10 9 10 10 10 10 9 9 9 10 10 10 11
2 1 1 1 1 0 1 1 4 4 3 5 5 4 5 6 4 4 4 5 6 7 9 8 9 10 9 8 8 8 10 10 9 9 11 10 10 9 10 10 10 10 10 11 11
2 2 1 1 1 1 1 4 3 4 7 3 3 4 5 6 8 7 5 7 8 9 8 10 11 8 7 8 9 9 11 11 10 11 12 11 11 9 9 11 10 10 10 11 12
1 2 2 2 2 2 2 3 3 3 6 6 4 5 5 7 7 8 6 7 8 9 9 10 9 9 9 11 11 11 12 11 11 11 11 12 12 11 9 10 11 11 10 11 11
1 2 2 2 4 3 4 2 2 1 10 9 7 5 6 5 8 5 6 7 10 11 10 11 9 11 11 12 12 13 10 11 12 13 14 11 15 11 10 13 13 12 12 12 11
1 1 2 2 4 4 4 2 2 3 18 8 9 6 7 8 8 10 7 9 10 11 11 11 12 12 12 11 11 12 10 11 11 13 13 12 15 12 11 14 13 13 12 12 11
2 2 2 2 3 3 2 2 3 13 19 11 10 10 10 9 11 10 10 9 9 10 11 11 10 11 11 10 10 10 12 12 12 13 16 13 14 13 13 13 12 12 12 12 11
2 2 2 1 4 3 3 5 13 18 9 11 12 10 10 11 12 12 12 13 12 14 14 12 12 11 10 12 11 11 13 16 17 17 18 14 14 13 10 11 10 12 12 11 12
2 2 2 1 2 3 4 9 18 12 11 10 10 10 11 11 12 13 13 14 11 11 12 13 15 11 11 11 11 13 12 16 21 19 16 16 17 14 12 11 11 11 11 11 12
1 1 2 1 2 2 7 15 14 11 9 10 11 12 12 11 11 12 12 12 11 11 14 13 13 11 11 10 9 13 14 10 15 18 18 15 14 12 14 14 13 12 12 12 12
2 3 3 0 2 4 10 13 12 9 8 9 12 11 12 12 13 12 12 10 10 10 8 10 14 13 13 12 12 12 11 16 15 20 21 15 15 14 15 14 13 12 12 12 12
3 6 2 0 3 7 13 12 10 8 8 10 10 11 11 11 12 12 11 10 9 10 10 10 12 14 14 15 14 14 15 13 13 14 19 19 15 11 11 12 13 12 12 12 12
4 9 1 1 9 9 12 10 9 8 7 9 8 9 10 11 12 12 12 10 9 10 13 10 12 16 13 12 11 11 13 13 15 17 15 15 14 13 10 10 11 12 11 11 11
6 6 2 2 12 12 9 10 9 9 9 9 10 9 8 10 13 12 10 8 9 10 11 11 14 18 16 14 14 15 14 12 12 13 16 17 15 13 12 11 10 11 11 11 11
6 10 6 6 6 9 11 11 11 8 9 8 9 8 10 11 10 11 11 11 10 10 10 10 13 15 17 13 13 16 15 14 14 16 15 15 13 14 13 12 12 11 11 11 11
6 9 6 11 10 9 9 10 11 12 9 8 10 10 11 14 13 13 11 10 12 11 11 11 16 13 12 11 12 13 14 14 15 14 15 13 13 11 12 11 11 11 11 11 12
8 8 7 8 7 9 10 11 11 10 10 11 12 10 10 12 12 14 11 11 12 13 13 12 15 13 15 12 12 14 13 13 13 14 13 12 12 8 9 10 11 11 11 12 12
6 7 8 9 9 10 10 11 11 9 9 9 10 11 11 10 8 10 11 11 11 12 14 14 15 16 17 13 14 18 16 14 13 12 12 14 12 13 13 12 12 11 11 12 11